Regional Weather Roundup
Issued by NWS Little Rock, AR

Home | Current Version | Previous Version | Text Only | Print | Product List | Glossary On
Versions: 1 2 3 4 5 6 7 8 9 10 11 12 13 14 15 16 17 18 19 20 21 22 23 24 25 26 27 28 29 30 31 32 33 34 35 36 37 38 39 40 41 42 43 44 45 46 47 48 49 50
000
ASUS44 KLZK 302205
RWRLZK

WEATHER ROUNDUP FOR ARKANSAS
NATIONAL WEATHER SERVICE LITTLE ROCK AR
500 PM CDT TUE JUN 30 2015

NOTE: "FAIR" INDICATES FEW OR NO CLOUDS BELOW 12,000 FEET WITH NO
SIGNIFICANT WEATHER AND/OR OBSTRUCTIONS TO VISIBILITY.

ARZ001-003-010-029-302300-
NORTHWEST ARKANSAS

CITY           SKY/WX    TMP DP  RH WIND       PRES   REMARKS
FAYETTEVILLE   PTSUNNY   87  71  58 W9        29.95F HX  93
FORT SMITH     MOSUNNY   94  66  39 W10       29.91F HX  97
HARRISON       MOSUNNY   84  68  58 W6        29.96F HX  87
BENTONVILLE    PTSUNNY   88  68  51 W9        29.96F HX  91
ROGERS         MOSUNNY   87  69  54 NW6       29.96F HX  91
SILOAM SPGS    MOSUNNY   90  66  45 W12       29.96  HX  92
HIGHFILL       MOSUNNY   89  70  53 SW8       29.95F HX  94
$$

ARZ004-005-016-302300-
NORTH CENTRAL ARKANSAS

CITY           SKY/WX    TMP DP  RH WIND       PRES   REMARKS
BATESVILLE     MOSUNNY   88  70  55 SW5       29.92S HX  92
FLIPPIN          N/A     88  66  48 W7        29.91F HX  90
MTN HOME       MOSUNNY   85  68  56 CALM      29.93F HX  88
$$

ARZ040-041-302300-
WEST CENTRAL ARKANSAS

CITY           SKY/WX    TMP DP  RH WIND       PRES   REMARKS
MENA           SUNNY     91  70  49 W6        29.97F HX  97
MOUNT IDA      SUNNY     91  69  48 VRB5      29.93F HX  96
$$

ARZ009-017-025-026-028-302300-
NORTHEAST ARKANSAS

CITY           SKY/WX    TMP DP  RH WIND       PRES   REMARKS
JONESBORO      MOSUNNY   89  64  43 W8        29.90F HX  90
NEWPORT        SUNNY     91  66  43 W9        29.91F HX  93
WALNUT RIDGE   SUNNY     90  64  43 W10       29.89F HX  91
BLYTHEVILLE    SUNNY     87  67  51 W10       29.90F HX  90
$$

ARZ022-023-033-042-044-302300-
CENTRAL ARKANSAS

CITY           SKY/WX    TMP DP  RH WIND       PRES   REMARKS
LITTLE ROCK    MOSUNNY   91  64  40 SW3       29.92F HX  92
N LITTLE ROCK  MOSUNNY   88  71  57 NW3       29.92F HX  93
JACKSONVILLE   SUNNY     89  67  47 W7        29.92  HX  92
SEARCY         SUNNY     87  71  58 SW6       29.93F HX  93
HOT SPRINGS    PTSUNNY   91  72  53 SW6       29.93F HX  98
RUSSELLVILLE   MOSUNNY   90  70  51 W3        29.91F HX  95
CLINTON        FAIR      86  72  62 SW7       29.93F HX  92
$$

ARZ036-302300-
EAST ARKANSAS

CITY           SKY/WX    TMP DP  RH WIND       PRES   REMARKS
WEST MEMPHIS   SUNNY     86  69  56 SW6       29.90F HX  90
$$

ARZ050-053-066-070-073-302300-
SOUTHWEST ARKANSAS

CITY           SKY/WX    TMP DP  RH WIND       PRES   REMARKS
ARKADELPHIA    FAIR      94  73  50 SW10      29.93F HX 103
CAMDEN         SUNNY     93  68  43 NE7       29.93F HX  97
TEXARKANA      SUNNY     92  69  47 CALM      29.95F HX  97
EL DORADO      MOSUNNY   92  71  50 CALM      29.95S HX  98
DE QUEEN       SUNNY     91  72  53 SW8       29.92F HX  98
$$

ARZ056-057-069-302300-
SOUTHEAST ARKANSAS

CITY           SKY/WX    TMP DP  RH WIND       PRES   REMARKS
PINE BLUFF     MOSUNNY   90  70  51 W5        29.93F HX  95
STUTTGART      SUNNY     90  68  48 MISG      29.93F HX  93
MONTICELLO     MOSUNNY   91  74  57 W7        29.93F HX 100

$$




USA.gov is the U.S. government's official web portal to all federal, state and local government web resources and services.